Flag for U.S.A. Weather past 2 weeks in Pittsburgh, Pennsylvania, U.S.A.

Now
17 °F

Clear.


Feels Like: 4 °F
Forecast: 16 / 39 °F
Wind: 13 mph from Southwest

Location: Allegheny County Airport

Current Time: Mar 6, 2015 at 9:36:44 PM

Latest Report: Mar 6, 2015 at 8:53 PM


Visibility: 10 mi

Pressure: 30.41 "Hg

Humidity: 68%

Dew point: 8 °F

Location of PittsburghLocation

Historic Weather in Pittsburgh — Graph

°F

Pittsburgh temperature yesterday

Maximum temperature yesterday: 28 °F (at 12:00 AM)
Minimum temperature yesterday: 7 °F (at 11:53 PM)
Average temperature yesterday: 16 °F

Past Weeks' High & Low Weather Summary

 TemperatureHumidityPressure
High48 °F (Mar 3, 9:00 PM)92% (Feb 22, 3:02 AM)30.84 "Hg (Feb 22, 3:02 AM)
Low-7 °F (Feb 20, 6:53 AM)23% (Feb 24, 3:53 PM)29.69 "Hg (Mar 3, 5:59 PM)
Average20 °F63%30.26 "Hg
* Reported Feb 19 7:53 PM — Mar 6 7:53 PM, Pittsburgh, Weather by CustomWeather, © 2015

Note: Actual official high and low records may vary slightly from our data, if they occured in-between our weather recording intervals... More about our weather records

Advertising

Pittsburgh weather history for previous 24 hours

 ConditionsComfort  
Time TempWeatherWind HumidityBarometerVisibility
7:53 PM
Fri, Mar 6
19 °FClear.9 mph65%30.41 "HgN/A
6:53 PM21 °FClear.7 mph60%30.42 "HgN/A
5:53 PM22 °FSunny.8 mph52%30.42 "HgN/A
4:53 PM21 °FSunny.9 mph52%30.44 "HgN/A
4:02 PM21 °FSunny.10 mph52%30.37 "Hg2 mi
3:53 PM21 °FSunny.8 mph50%30.46 "HgN/A
2:53 PM20 °FSunny.8 mph52%30.47 "HgN/A
1:53 PM19 °FSunny.5 mph52%30.50 "Hg10 mi
12:53 PM16 °FSunny.5 mph59%30.55 "HgN/A
11:53 AM15 °FSunny.8 mph56%30.57 "Hg10 mi
10:53 AM13 °FSunny.5 mph61%30.58 "HgN/A
9:53 AM11 °FSunny.3 mph64%30.60 "HgN/A
8:53 AM8 °FSunny.8 mph69%30.60 "HgN/A
7:53 AM3 °FSunny.5 mph84%30.59 "HgN/A
6:53 AM1 °FSunny.6 mph75%30.58 "HgN/A
5:53 AM1 °FClear.6 mph79%30.59 "HgN/A
4:53 AM1 °FClear.6 mph83%30.58 "HgN/A
3:53 AM5 °FClear.6 mph72%30.56 "HgN/A
2:53 AM5 °FClear.5 mph80%30.56 "HgN/A
1:53 AM6 °FClear.No wind69%30.55 "HgN/A
12:53 AM7 °FClear.No wind63%30.54 "HgN/A
11:53 PM
Thu, Mar 5
7 °FClear.No wind63%30.56 "HgN/A
10:53 PM8 °FClear.6 mph60%30.55 "Hg7 mi
9:53 PM9 °FClear.7 mph61%30.54 "HgN/A
Weather by CustomWeather, © 2015

See weather overviewHow to use our weather pages